• In Lithuania
  • List of Countries
  • For 7 days
  • Water Temperature
  • Satellite Maps
  • Weather Map
  • Weather Widgets
  • user-avatar
    Login

    Hourly Weather Banfora

    Today, 19 September, Wednesday

    Time Temperature Precipitation Wind Pressure Humidity
    00:00 +27°C° 0 mm 1 mps 733 mmHg 82%
    01:00 +27°C° 0.1 mm 1 mps 733 mmHg 84%
    02:00 +26°C° 0.1 mm 1 mps 733 mmHg 87%
    03:00 +26°C° 0.1 mm 1 mps 732 mmHg 89%
    04:00 +26°C° 0 mm 2 mps 732 mmHg 91%
    05:00 +25°C° 0 mm 2 mps 732 mmHg 93%
    06:00 +25°C° 0 mm 2 mps 733 mmHg 95%
    07:00 +26°C° 0 mm 2 mps 733 mmHg 89%
    08:00 +28°C° 0 mm 2 mps 733 mmHg 84%
    09:00 +29°C° 0 mm 2 mps 733 mmHg 78%
    10:00 +32°C° 0 mm 1 mps 733 mmHg 71%
    11:00 +34°C° 0 mm 1 mps 733 mmHg 63%
    12:00 +36°C° 0 mm 1 mps 734 mmHg 54%
    13:00 +36°C° 0.1 mm 1 mps 733 mmHg 53%
    14:00 +35°C° 0.1 mm 1 mps 732 mmHg 53%
    15:00 +35°C° 0.1 mm 1 mps 732 mmHg 53%
    16:00 +34°C° 0.5 mm 1 mps 732 mmHg 60%
    17:00 +32°C° 0.5 mm 1 mps 731 mmHg 68%
    18:00 +30°C° 0.5 mm 1 mps 731 mmHg 75%
    19:00 +29°C° 2.2 mm 1 mps 732 mmHg 79%
    20:00 +28°C° 2.2 mm 1 mps 732 mmHg 84%
    21:00 +27°C° 2.2 mm 2 mps 733 mmHg 88%
    22:00 +27°C° 1.8 mm 1 mps 733 mmHg 89%
    23:00 +27°C° 1.8 mm 1 mps 733 mmHg 90%

    Tomorrow, 20 September, Thursday

    Time Temperature Precipitation Wind Pressure Humidity
    00:00 +26°C° 1.8 mm 1 mps 733 mmHg 91%
    01:00 +26°C° 0.1 mm 1 mps 732 mmHg 91%
    02:00 +26°C° 0.1 mm 1 mps 732 mmHg 91%
    03:00 +24°C° 0.1 mm 0 mps 732 mmHg 91%
    04:00 +26°C° 0 mm 1 mps 732 mmHg 92%
    05:00 +25°C° 0 mm 1 mps 732 mmHg 93%
    06:00 +25°C° 0 mm 1 mps 732 mmHg 94%
    07:00 +26°C° 0 mm 1 mps 733 mmHg 90%
    08:00 +28°C° 0 mm 1 mps 733 mmHg 86%
    09:00 +29°C° 0 mm 1 mps 734 mmHg 83%
    10:00 +30°C° 0 mm 2 mps 734 mmHg 75%
    11:00 +32°C° 0 mm 2 mps 733 mmHg 67%
    12:00 +35°C° 0 mm 2 mps 733 mmHg 59%
    13:00 +35°C° 0 mm 2 mps 733 mmHg 57%
    14:00 +36°C° 0 mm 2 mps 732 mmHg 55%
    15:00 +36°C° 0 mm 2 mps 731 mmHg 52%
    16:00 +35°C° 0 mm 2 mps 731 mmHg 58%
    17:00 +32°C° 0 mm 2 mps 730 mmHg 64%
    18:00 +31°C° 0 mm 1 mps 730 mmHg 69%
    19:00 +30°C° 0 mm 1 mps 731 mmHg 71%
    20:00 +30°C° 0 mm 1 mps 732 mmHg 73%
    21:00 +29°C° 0 mm 1 mps 732 mmHg 75%
    22:00 +28°C° 1.4 mm 1 mps 732 mmHg 80%
    23:00 +27°C° 1.4 mm 1 mps 733 mmHg 86%

    Day after tomorrow, 21 September, Friday

    Time Temperature Precipitation Wind Pressure Humidity
    00:00 +26°C° 1.4 mm 1 mps 733 mmHg 92%
    01:00 +26°C° 0.3 mm 1 mps 732 mmHg 93%
    02:00 +26°C° 0.3 mm 1 mps 732 mmHg 94%
    03:00 +26°C° 0.3 mm 2 mps 732 mmHg 95%
    04:00 +25°C° 0.1 mm 2 mps 732 mmHg 96%
    05:00 +25°C° 0.1 mm 1 mps 732 mmHg 96%
    06:00 +25°C° 0.1 mm 1 mps 732 mmHg 96%
    07:00 +26°C° 0 mm 2 mps 733 mmHg 92%
    08:00 +27°C° 0 mm 2 mps 733 mmHg 87%
    09:00 +29°C° 0 mm 2 mps 734 mmHg 83%
    10:00 +30°C° 0 mm 2 mps 733 mmHg 75%
    11:00 +32°C° 0 mm 2 mps 733 mmHg 67%
    12:00 +34°C° 0 mm 2 mps 733 mmHg 59%
    13:00 +35°C° 0 mm 2 mps 732 mmHg 57%
    14:00 +34°C° 0 mm 1 mps 731 mmHg 54%
    15:00 +35°C° 0 mm 1 mps 731 mmHg 52%
    16:00 +34°C° 0 mm 1 mps 731 mmHg 58%
    17:00 +32°C° 0 mm 1 mps 730 mmHg 63%
    18:00 +31°C° 0 mm 1 mps 730 mmHg 68%
    19:00 +30°C° 0 mm 1 mps 731 mmHg 70%
    20:00 +30°C° 0 mm 1 mps 732 mmHg 71%
    21:00 +29°C° 0 mm 1 mps 732 mmHg 73%
    22:00 +28°C° 1 mm 1 mps 732 mmHg 78%
    23:00 +27°C° 1 mm 1 mps 732 mmHg 83%

    22 September, Saturday

    Time Temperature Precipitation Wind Pressure Humidity
    00:00 +26°C° 1 mm 1 mps 733 mmHg 88%
    01:00 +26°C° 1.6 mm 1 mps 732 mmHg 89%
    02:00 +26°C° 1.6 mm 1 mps 732 mmHg 91%
    03:00 +25°C° 1.6 mm 1 mps 732 mmHg 92%
    04:00 +25°C° 0.1 mm 1 mps 732 mmHg 92%
    05:00 +25°C° 0.1 mm 1 mps 733 mmHg 92%
    06:00 +25°C° 0.1 mm 1 mps 733 mmHg 92%
    07:00 +26°C° 0.1 mm 1 mps 734 mmHg 89%
    08:00 +27°C° 0.1 mm 2 mps 734 mmHg 86%
    09:00 +28°C° 0.1 mm 2 mps 735 mmHg 83%
    10:00 +29°C° 0.5 mm 2 mps 734 mmHg 78%
    11:00 +31°C° 0.5 mm 1 mps 734 mmHg 72%
    12:00 +32°C° 0.5 mm 1 mps 734 mmHg 66%
    13:00 +32°C° 0.1 mm 1 mps 733 mmHg 63%
    14:00 +33°C° 0.1 mm 1 mps 732 mmHg 59%
    15:00 +33°C° 0.1 mm 1 mps 731 mmHg 56%
    16:00 +32°C° 0 mm 1 mps 731 mmHg 62%
    17:00 +31°C° 0 mm 1 mps 731 mmHg 67%
    18:00 +30°C° 0 mm 1 mps 731 mmHg 73%
    19:00 +29°C° 0 mm 1 mps 732 mmHg 75%
    20:00 +28°C° 0 mm 1 mps 733 mmHg 77%
    21:00 +28°C° 0 mm 1 mps 733 mmHg 79%
    22:00 +27°C° 0 mm 1 mps 733 mmHg 80%
    23:00 +27°C° 0 mm 1 mps 733 mmHg 81%

    23 September, Sunday

    Time Temperature Precipitation Wind Pressure Humidity
    00:00 +27°C° 0 mm 1 mps 733 mmHg 83%
    01:00 +26°C° 0.9 mm 1 mps 733 mmHg 86%
    02:00 +26°C° 0.9 mm 1 mps 732 mmHg 89%
    03:00 +25°C° 0.9 mm 1 mps 732 mmHg 92%
    04:00 +25°C° 0.7 mm 1 mps 732 mmHg 92%
    05:00 +25°C° 0.7 mm 1 mps 733 mmHg 92%
    06:00 +25°C° 0.7 mm 1 mps 733 mmHg 92%
    07:00 +26°C° 0 mm 1 mps 734 mmHg 87%
    08:00 +28°C° 0 mm 1 mps 734 mmHg 83%
    09:00 +29°C° 0 mm 2 mps 734 mmHg 79%
    10:00 +31°C° 0 mm 1 mps 734 mmHg 71%
    11:00 +32°C° 0 mm 1 mps 734 mmHg 64%
    12:00 +34°C° 0 mm 1 mps 733 mmHg 57%
    13:00 +35°C° 0 mm 1 mps 732 mmHg 54%
    14:00 +36°C° 0 mm 1 mps 732 mmHg 52%
    15:00 +36°C° 0 mm 1 mps 731 mmHg 50%
    16:00 +35°C° 0 mm 1 mps 731 mmHg 55%
    17:00 +33°C° 0 mm 1 mps 731 mmHg 60%
    18:00 +32°C° 0 mm 1 mps 732 mmHg 65%
    19:00 +30°C° 2.1 mm 1 mps 732 mmHg 72%
    20:00 +29°C° 2.1 mm 2 mps 733 mmHg 79%
    21:00 +27°C° 2.1 mm 3 mps 733 mmHg 86%
    22:00 +27°C° 1 mm 2 mps 733 mmHg 89%
    23:00 +26°C° 1 mm 2 mps 733 mmHg 92%

    24 September, Monday

    Time Temperature Precipitation Wind Pressure Humidity
    00:00 +26°C° 1 mm 2 mps 733 mmHg 94%
    01:00 +26°C° 0 mm 2 mps 733 mmHg 94%
    02:00 +25°C° 0 mm 2 mps 732 mmHg 94%
    03:00 +25°C° 0 mm 2 mps 732 mmHg 93%
    04:00 +25°C° 0 mm 2 mps 732 mmHg 93%
    05:00 +25°C° 0 mm 2 mps 732 mmHg 93%
    06:00 +25°C° 0 mm 1 mps 733 mmHg 93%
    07:00 +26°C° 0 mm 1 mps 733 mmHg 88%
    08:00 +28°C° 0 mm 1 mps 733 mmHg 83%
    09:00 +29°C° 0 mm 1 mps 734 mmHg 78%
    10:00 +31°C° 0 mm 1 mps 733 mmHg 70%
    11:00 +33°C° 0 mm 1 mps 733 mmHg 62%
    12:00 +35°C° 0 mm 2 mps 733 mmHg 54%
    13:00 +35°C° 0 mm 1 mps 732 mmHg 52%
    14:00 +36°C° 0 mm 1 mps 731 mmHg 51%
    15:00 +36°C° 0 mm 1 mps 731 mmHg 49%
    16:00 +35°C° 0 mm 1 mps 731 mmHg 54%
    17:00 +33°C° 0 mm 1 mps 731 mmHg 60%
    18:00 +31°C° 0 mm 1 mps 731 mmHg 65%
    19:00 +30°C° 1.7 mm 1 mps 732 mmHg 71%
    20:00 +29°C° 1.7 mm 1 mps 732 mmHg 77%
    21:00 +27°C° 1.7 mm 1 mps 733 mmHg 83%
    22:00 +25°C° 1.5 mm 0 mps 733 mmHg 85%
    23:00 +25°C° 1.5 mm 0 mps 733 mmHg 87%
    Show more